Location:  
MeteoStar


Sort by weather type Sort by elevation Sort by visibility Sort from west to east north Sort from north to south Alphabetically Sort from strongest wind speed Sort from lowest to highest pressure Sort from highest to lowest dew point temperature Sort coolest temperatures to warmest Sort warm temperatures to coolest
 Metric

Current Observations for Saudi Arabia

Abha14:00ZClear64 18NE 9 646856
Al Ahsa14:00ZNot Avail.72 451021.9N 10 72587
Al Baha14:00ZNot Avail.64 27E 8 645419
Al Qaysumah14:00ZNot Avail.68 361025.0WNW 4 681174
Al-Jouf14:00ZPartly Cloudy72 231022.6ENE 3 722260
Arar14:00ZNot Avail.68 411021.9SE 4 681820
Bisha14:00ZNot Avail.68 271021.5ENE 10 683828
Dhahran14:00ZNot Avail.70 551020.1N 13 7085
Gassim14:00ZNot Avail.64 411023.9S 4 642125
Gizan14:00ZNot Avail.84 701015.1SW 9 8819
Guriat14:00ZPartly Cloudy63 231019.1NE 8 631669
Hail14:00ZNot Avail.66 281024.2S 4 663330
Jeddah King Abdul Aziz International Airport 14:00ZNot Avail.86 461014.1WSW 10 8349
Khamis Mushait14:00ZNot Avail.66 19NE 12 666778
King Khaled International Airport14:00ZNot Avail.64 391024.7CALM642014
Madinah14:00ZNot Avail.75 191022.2E 9 752145
Makkah14:00ZNot Avail.93 481013.1W 2 901017
Najran14:00ZNot Avail.66 251021.1E 6 663976
Rafha14:00ZNot Avail.68 271022.9SSW 3 681473
Sharurah14:00ZNot Avail.68 371021.4NNE 8 682362
Tabuk14:00ZNot Avail.75 231019.3W 4 752552
Taif14:00ZNot Avail.68 181021.1E 13 684849
Turaif14:00ZNot Avail.64 251021.5SSE 6 642667
Wadi Al Dawasser Airport14:00ZClear70 5061021.5E 6 702047
Wejh14:00ZNot Avail.82 5961017.1NW 11 8265
Yenbo14:00ZNot Avail.88 3261015.1NE 2 8426

Atlantic
Tropical Watch